Location: Arthurs Seat
(13.1500°N, 59.6000°W)
Time: 15:26:57
(UTC+00:00)

Unknown - Pass Details

Date: 25 August 2019
Orbit: 495 x 498 km, 53.0° (Epoch: 22 September)

Event Time Altitude Azimuth Distance (km) Brightness Sun altitude
Rises 23:31:16 0° 330° (NNW) 2,569 7.8 -19.1°
Reaches altitude 10° 23:33:28 10° 334° (NNW) 1,687 6.7 -19.6°
Enters shadow 23:37:11 59° 51° (NE) 576 3.4 -20.5°
